• In Uzbekistan
  • List of Countries
  • For 7 days
  • Water Temperature
  • Weather Map
  • Weather Widgets
  • user-avatar
    Login

    Hourly Weather Herāt

    Today, 25 February, Tuesday

    Time Temperature Precipitation Wind Pressure Humidity
    00:00 +13°C° 0 mm 2 mps 680 mmHg 47%
    01:00 +13°C° 0 mm 2 mps 680 mmHg 48%
    02:00 +13°C° 0 mm 2 mps 680 mmHg 47%
    03:00 +12°C° 0 mm 3 mps 679 mmHg 47%
    04:00 +11°C° 0 mm 3 mps 679 mmHg 46%
    05:00 +12°C° 0 mm 3 mps 679 mmHg 46%
    06:00 +12°C° 0 mm 3 mps 679 mmHg 45%
    07:00 +12°C° 0 mm 4 mps 679 mmHg 45%
    08:00 +14°C° 0 mm 4 mps 680 mmHg 40%
    09:00 +15°C° 0 mm 4 mps 680 mmHg 35%
    10:00 +18°C° 0 mm 4 mps 681 mmHg 30%
    11:00 +20°C° 0 mm 5 mps 680 mmHg 28%
    12:00 +21°C° 0 mm 6 mps 680 mmHg 26%
    13:00 +22°C° 0 mm 7 mps 680 mmHg 24%
    14:00 +22°C° 0 mm 7 mps 679 mmHg 24%
    15:00 +22°C° 0 mm 7 mps 679 mmHg 24%
    16:00 +22°C° 0 mm 7 mps 678 mmHg 24%
    17:00 +21°C° 0 mm 6 mps 678 mmHg 26%
    18:00 +21°C° 0 mm 6 mps 679 mmHg 29%
    19:00 +20°C° 0 mm 5 mps 679 mmHg 32%
    20:00 +19°C° 0 mm 5 mps 679 mmHg 33%
    21:00 +19°C° 0 mm 5 mps 679 mmHg 35%
    22:00 +19°C° 0 mm 5 mps 678 mmHg 36%
    23:00 +17°C° 0 mm 6 mps 678 mmHg 37%

    Tomorrow, 26 February, Wednesday

    Time Temperature Precipitation Wind Pressure Humidity
    00:00 +17°C° 0 mm 6 mps 678 mmHg 37%
    01:00 +17°C° 0 mm 6 mps 677 mmHg 37%
    02:00 +17°C° 0 mm 6 mps 677 mmHg 36%
    03:00 +17°C° 0 mm 6 mps 676 mmHg 34%
    04:00 +17°C° 0 mm 6 mps 676 mmHg 33%
    05:00 +17°C° 0 mm 6 mps 676 mmHg 32%
    06:00 +17°C° 0 mm 5 mps 676 mmHg 32%
    07:00 +17°C° 0 mm 5 mps 676 mmHg 32%
    08:00 +20°C° 0 mm 6 mps 677 mmHg 28%
    09:00 +22°C° 0 mm 7 mps 678 mmHg 24%
    10:00 +24°C° 0 mm 8 mps 679 mmHg 21%
    11:00 +24°C° 0 mm 7 mps 679 mmHg 21%
    12:00 +24°C° 0 mm 7 mps 679 mmHg 21%
    13:00 +24°C° 0 mm 7 mps 679 mmHg 22%
    14:00 +24°C° 0 mm 6 mps 678 mmHg 25%
    15:00 +23°C° 0 mm 5 mps 678 mmHg 28%
    16:00 +22°C° 0 mm 4 mps 677 mmHg 31%
    17:00 +21°C° 0 mm 5 mps 677 mmHg 34%
    18:00 +20°C° 0 mm 5 mps 677 mmHg 36%
    19:00 +19°C° 0 mm 6 mps 677 mmHg 39%
    20:00 +16°C° 0.5 mm 6 mps 677 mmHg 50%
    21:00 +14°C° 0.5 mm 6 mps 677 mmHg 61%
    22:00 +11°C° 0.5 mm 6 mps 677 mmHg 72%
    23:00 +12°C° 0.8 mm 5 mps 677 mmHg 73%

    Day after tomorrow, 27 February, Thursday

    Time Temperature Precipitation Wind Pressure Humidity
    00:00 +11°C° 0.8 mm 4 mps 677 mmHg 74%
    01:00 +11°C° 0.8 mm 4 mps 677 mmHg 76%
    02:00 +8°C° 0.2 mm 4 mps 677 mmHg 74%
    03:00 +7°C° 0.2 mm 5 mps 678 mmHg 73%
    04:00 +6°C° 0.2 mm 5 mps 678 mmHg 71%
    05:00 +6°C° 0.1 mm 5 mps 679 mmHg 71%
    06:00 +6°C° 0.1 mm 4 mps 679 mmHg 71%
    07:00 +5°C° 0.1 mm 4 mps 680 mmHg 70%
    08:00 +6°C° 0 mm 4 mps 680 mmHg 69%
    09:00 +6°C° 0 mm 4 mps 681 mmHg 69%
    10:00 +6°C° 0 mm 4 mps 682 mmHg 68%
    11:00 +7°C° 0 mm 5 mps 682 mmHg 65%
    12:00 +7°C° 0 mm 6 mps 681 mmHg 63%
    13:00 +7°C° 0 mm 6 mps 681 mmHg 60%
    14:00 +7°C° 0 mm 6 mps 681 mmHg 59%
    15:00 +7°C° 0 mm 5 mps 681 mmHg 58%
    16:00 +7°C° 0 mm 5 mps 681 mmHg 57%
    17:00 +6°C° 0 mm 4 mps 682 mmHg 60%
    18:00 +5°C° 0 mm 4 mps 682 mmHg 64%
    19:00 +4°C° 0 mm 4 mps 682 mmHg 68%
    20:00 +4°C° 0 mm 4 mps 682 mmHg 69%
    21:00 +4°C° 0 mm 3 mps 682 mmHg 70%
    22:00 +4°C° 0 mm 3 mps 682 mmHg 70%
    23:00 +4°C° 0 mm 3 mps 681 mmHg 72%

    28 February, Friday

    Time Temperature Precipitation Wind Pressure Humidity
    00:00 +3°C° 0 mm 3 mps 681 mmHg 73%
    01:00 +4°C° 0 mm 2 mps 681 mmHg 75%
    02:00 +4°C° 0 mm 2 mps 680 mmHg 76%
    03:00 +3°C° 0 mm 2 mps 680 mmHg 78%
    04:00 +3°C° 0 mm 2 mps 680 mmHg 79%
    05:00 +3°C° 0 mm 2 mps 680 mmHg 80%
    06:00 +4°C° 0 mm 1 mps 680 mmHg 81%
    07:00 +4°C° 0 mm 1 mps 680 mmHg 82%
    08:00 +5°C° 0 mm 1 mps 680 mmHg 77%
    09:00 +6°C° 0 mm 1 mps 680 mmHg 72%
    10:00 +7°C° 0 mm 1 mps 680 mmHg 67%
    11:00 +7°C° 0 mm 2 mps 679 mmHg 63%
    12:00 +9°C° 0 mm 2 mps 679 mmHg 58%
    13:00 +10°C° 0 mm 3 mps 679 mmHg 54%
    14:00 +10°C° 0 mm 2 mps 678 mmHg 52%
    15:00 +12°C° 0 mm 2 mps 678 mmHg 51%
    16:00 +12°C° 0 mm 2 mps 678 mmHg 49%
    17:00 +12°C° 0 mm 2 mps 678 mmHg 52%
    18:00 +11°C° 0 mm 1 mps 678 mmHg 55%
    19:00 +10°C° 0 mm 1 mps 678 mmHg 59%
    20:00 +10°C° 0 mm 1 mps 678 mmHg 60%
    21:00 +10°C° 0 mm 1 mps 678 mmHg 61%
    22:00 +9°C° 0 mm 1 mps 678 mmHg 62%
    23:00 +9°C° 0 mm 1 mps 677 mmHg 63%

    29 February, Saturday

    Time Temperature Precipitation Wind Pressure Humidity
    00:00 +9°C° 0 mm 1 mps 677 mmHg 64%
    01:00 +9°C° 0 mm 1 mps 677 mmHg 65%
    02:00 +8°C° 0 mm 1 mps 676 mmHg 66%
    03:00 +8°C° 0 mm 1 mps 676 mmHg 67%
    04:00 +8°C° 0 mm 1 mps 676 mmHg 67%
    05:00 +8°C° 0 mm 1 mps 676 mmHg 67%
    06:00 +8°C° 0 mm 1 mps 676 mmHg 67%
    07:00 +8°C° 0 mm 1 mps 676 mmHg 67%
    08:00 +10°C° 0 mm 1 mps 677 mmHg 58%
    09:00 +12°C° 0 mm 1 mps 678 mmHg 50%
    10:00 +14°C° 0 mm 1 mps 678 mmHg 41%
    11:00 +16°C° 0 mm 2 mps 678 mmHg 36%
    12:00 +17°C° 0 mm 2 mps 678 mmHg 31%
    13:00 +18°C° 0 mm 2 mps 678 mmHg 25%
    14:00 +18°C° 0 mm 2 mps 678 mmHg 24%
    15:00 +19°C° 0 mm 2 mps 678 mmHg 22%
    16:00 +19°C° 0 mm 3 mps 678 mmHg 20%
    17:00 +17°C° 0 mm 2 mps 677 mmHg 25%
    18:00 +16°C° 0 mm 1 mps 677 mmHg 29%
    19:00 +14°C° 0 mm 1 mps 677 mmHg 34%
    20:00 +14°C° 0 mm 1 mps 677 mmHg 35%
    21:00 +12°C° 0 mm 0 mps 677 mmHg 37%
    22:00 +11°C° 0 mm 0 mps 677 mmHg 38%
    23:00 +11°C° 0 mm 0 mps 677 mmHg 39%

    1 March, Sunday

    Time Temperature Precipitation Wind Pressure Humidity
    00:00 +12°C° 0 mm 1 mps 676 mmHg 39%
    01:00 +11°C° 0 mm 1 mps 676 mmHg 40%
    02:00 +11°C° 0 mm 1 mps 675 mmHg 42%
    03:00 +10°C° 0 mm 1 mps 675 mmHg 44%
    04:00 +10°C° 0 mm 1 mps 674 mmHg 45%
    05:00 +10°C° 0 mm 1 mps 674 mmHg 46%
    06:00 +10°C° 0 mm 1 mps 675 mmHg 47%
    07:00 +10°C° 0 mm 1 mps 675 mmHg 47%
    08:00 +13°C° 0 mm 2 mps 675 mmHg 40%
    09:00 +14°C° 0 mm 3 mps 676 mmHg 33%
    10:00 +18°C° 0 mm 4 mps 676 mmHg 26%
    11:00 +19°C° 0 mm 6 mps 676 mmHg 24%
    12:00 +21°C° 0 mm 8 mps 676 mmHg 22%
    13:00 +22°C° 0 mm 10 mps 676 mmHg 20%
    14:00 +22°C° 0 mm 10 mps 675 mmHg 21%
    15:00 +21°C° 0 mm 10 mps 675 mmHg 22%
    16:00 +21°C° 0 mm 10 mps 675 mmHg 23%
    17:00 +19°C° 0 mm 9 mps 675 mmHg 26%
    18:00 +18°C° 0 mm 8 mps 675 mmHg 29%
    19:00 +16°C° 0 mm 7 mps 675 mmHg 32%
    20:00 +16°C° 0 mm 6 mps 675 mmHg 33%
    21:00 +15°C° 0 mm 6 mps 675 mmHg 33%
    22:00 +15°C° 0 mm 5 mps 675 mmHg 33%
    23:00 +15°C° 0 mm 5 mps 675 mmHg 32%
    Show more